Terug naar catalogus

STARLINK-5455

ActiefCommunicatieVLEO
NORAD 55668·PAYLOAD·🇺🇸 United States

Gelanceerd Feb 17, 2023 vanaf Vandenberg Space Force Base

Loading…

Volgende Passages (komende 24 uur)

TLE

VersSource: CelesTrak SupGP

Epoch: Sep 15, 2026, 03:01 UTC

1 55668C 23021AS  26258.12618056 -.00026198  00000+0 -21960-2 0  2585
2 55668  70.0021  46.8781 0002982 269.3190 276.6092 14.98335691    19

Volg STARLINK-5455 in realtime met AllMySat

Download on the App Store